Regional Weather Roundup
Issued by NWS

Home | Current Version | Previous Version | Graphics & Text | Print | Product List | Glossary On
Versions: 1 2 3 4 5 6 7 8 9 10 11 12 13 14 15 16 17 18 19 20 21 22 23 24 25 26 27 28 29 30 31 32 33 34 35 36 37 38 39 40 41 42 43 44 45 46 47 48 49 50
645
ASUS43 KOAX 302110
RWRNE

WEATHER ROUNDUP FOR NEBRASKA
NATIONAL WEATHER SERVICE OMAHA NE
400 PM CDT TUE AUG 30 2016

NOTES: SATELLITE DATA IS BEING USED TO AUGMENT CLOUD COVER ABOVE
       12000 FEET.
       "FAIR" INDICATES FEW OR NO CLOUDS BELOW 12,000 FEET WITH NO
       SIGNIFICANT WEATHER AND/OR OBSTRUCTIONS TO VISIBILITY.

  * THESE STATIONS DO NOT REPORT WEATHER SUCH AS RAIN...SNOW OR FOG.

NEZ001>004-019>022-054>056-302200-
NEBRASKA PANHANDLE

CITY           SKY/WX    TMP DP  RH WIND       PRES   REMARKS
SCOTTSBLUFF    SUNNY     85  54  34 E8        30.23F
ALLIANCE       MOSUNNY   81  54  39 SE7       30.22F
CHADRON        MOSUNNY   89  48  24 SE7G20    30.18F
KIMBALL        CLOUDY    78  53  40 SE6       30.28F
SIDNEY         PTSUNNY   75  57  53 S14       30.27F
$$

NEZ057>060-069>072-079>082-302200-
SOUTHWEST NEBRASKA

CITY           SKY/WX    TMP DP  RH WIND       PRES   REMARKS
NORTH PLATTE   CLOUDY    80  64  58 SE8       30.21F
IMPERIAL       CLOUDY    76  63  64 E9        30.23S
LEXINGTON      CLOUDY    74  65  74 CALM      30.21F
MCCOOK         PTSUNNY   75  66  73 NE9       30.20F
OGALLALA       CLOUDY    80  58  46 SE7       30.22S
$$

NEZ005>010-023>029-035>040-094-302200-
NORTH CENTRAL NEBRASKA

CITY           SKY/WX    TMP DP  RH WIND       PRES   REMARKS
VALENTINE      MOSUNNY   87  57  35 SE5       30.18F
AINSWORTH      SUNNY     85  61  44 SE9       30.19F
BROKEN BOW     CLOUDY    77  65  66 CALM      30.20F
O`NEILL        MOSUNNY   82  63  52 SE5       30.19F
ORD            CLOUDY    79  64  60 E6        30.17F
THEDFORD       CLOUDY    85  57  38 SE6       30.19F
$$

NEZ041-046>049-061>064-073>077-083>087-302200-
SOUTH CENTRAL NEBRASKA

CITY           SKY/WX    TMP DP  RH WIND       PRES   REMARKS
GRAND ISLAND   LGT RAIN  73  68  84 S6        30.18F
AURORA         CLOUDY    73  70  88 SW7       30.17F
HASTINGS       CLOUDY    75  67  76 E10       30.20F
HEBRON         CLOUDY    77  69  75 E6        30.15F
HOLDREGE       CLOUDY    76  65  68 N5        30.20F
KEARNEY *      CLOUDY    75  63  64 E8        30.18F
YORK           CLOUDY    75  68  78 NE3       30.18R
$$

NEZ011>018-030>034-042>045-302200-
NORTHEAST NEBRASKA

CITY           SKY/WX    TMP DP  RH WIND       PRES   REMARKS
NORFOLK        CLOUDY    78  67  68 W3        30.17F
ALBION         CLOUDY    77  67  70 CALM      30.19F
BLAIR          CLOUDY    78  69  74 N3        30.16F
FREMONT        CLOUDY    77  67  73 CALM      30.16F
TEKAMAH        CLOUDY    79  69  71 N3        30.15F
WAYNE          CLOUDY    78  69  73 CALM      30.17F
$$

NEZ050>053-065>068-078-088>093-302200-
SOUTHEAST NEBRASKA

CITY           SKY/WX    TMP DP  RH WIND       PRES   REMARKS
LINCOLN        CLOUDY    80  69  69 N8        30.15F
OMAHA EPPLEY   CLOUDY    80  68  66 N8        30.14F
BEATRICE       CLOUDY    78  69  73 E3        30.14F
FALLS CITY     CLOUDY    81  71  71 VRB5      30.11F
NEBRASKA CITY  CLOUDY    77  69  77 CALM      30.14S
PLATTSMOUTH    PTSUNNY   79  71  74 N6        30.14F
$$

NEZ044-045-051>053-067-302200-
OMAHA AREA

CITY           SKY/WX    TMP DP  RH WIND       PRES   REMARKS
OMAHA EPPLEY   CLOUDY    80  68  66 N8        30.14F
BLAIR          CLOUDY    78  69  74 N3        30.16F
FREMONT        CLOUDY    77  67  73 CALM      30.16F
MILLARD        MOSUNNY  N/A N/A N/A CALM      30.15S
OFFUTT AFB     PTSUNNY   79  68  69 NW6       30.13F
PLATTSMOUTH    PTSUNNY   79  71  74 N6        30.14F
WAHOO          FAIR      76  68  76 N5        30.16F
$$




USA.gov is the U.S. government's official web portal to all federal, state and local government web resources and services.